TimeGMT,TemperatureF,Dew PointF,Humidity,Sea Level PressureIn,VisibilityMPH,Wind Direction,Wind SpeedMPH,Gust SpeedMPH,PrecipitationIn,Events,Conditions,WindDirDegrees,DateUTC
12:00 AM,37,34,85,,19,WSW,17.9,,,,Partly Cloudy,240,2013-01-01 00:00:00
12:00 AM,37.4,33.8,87,29.50,6.2,WSW,17.3,-,N/A,,Scattered Clouds,240,2013-01-01 00:00:00
12:30 AM,37.4,33.8,87,29.50,6.2,WSW,17.3,-,N/A,,Scattered Clouds,240,2013-01-01 00:30:00
1:00 AM,37.4,33.8,87,29.53,6.2,WSW,18.4,-,N/A,,Scattered Clouds,240,2013-01-01 01:00:00
1:30 AM,37.4,33.8,87,29.53,6.2,WSW,17.3,-,N/A,,Scattered Clouds,240,2013-01-01 01:30:00
2:00 AM,37.4,33.8,87,29.53,6.2,WSW,16.1,-,N/A,,Partly Cloudy,240,2013-01-01 02:00:00
2:30 AM,37.4,33.8,87,29.53,6.2,WSW,15.0,-,N/A,,Partly Cloudy,240,2013-01-01 02:30:00
3:00 AM,37.4,33.8,87,29.56,6.2,WSW,17.3,-,N/A,,Partly Cloudy,240,2013-01-01 03:00:00
3:30 AM,37.4,33.8,87,29.56,6.2,WSW,15.0,-,N/A,,Partly Cloudy,240,2013-01-01 03:30:00
4:00 AM,37.4,33.8,87,29.56,6.2,WSW,15.0,-,N/A,,Partly Cloudy,240,2013-01-01 04:00:00
4:30 AM,37.4,33.8,87,29.56,6.2,WSW,15.0,-,N/A,,Partly Cloudy,240,2013-01-01 04:30:00
5:00 AM,35.6,33.8,93,29.59,6.2,WSW,18.4,-,N/A,,Partly Cloudy,240,2013-01-01 05:00:00
5:30 AM,35.6,33.8,93,29.59,6.2,WSW,17.3,-,N/A,,Partly Cloudy,250,2013-01-01 05:30:00
6:00 AM,35,33,90,29.64,19,WSW,17.9,,,,Scattered Clouds,250,2013-01-01 06:00:00
6:00 AM,35.6,33.8,93,29.62,6.2,WSW,18.4,-,N/A,,Partly Cloudy,250,2013-01-01 06:00:00
6:30 AM,35.6,33.8,93,29.62,6.2,WSW,16.1,-,N/A,,Partly Cloudy,250,2013-01-01 06:30:00
7:00 AM,35.6,32.0,87,29.65,6.2,WSW,19.6,-,N/A,,Partly Cloudy,250,2013-01-01 07:00:00
7:30 AM,35.6,32.0,87,29.65,6.2,WSW,18.4,-,N/A,,Partly Cloudy,250,2013-01-01 07:30:00
8:00 AM,35.6,33.8,93,29.65,6.2,WSW,20.7,-,N/A,,Partly Cloudy,250,2013-01-01 08:00:00
8:30 AM,35.6,32.0,87,29.68,6.2,WSW,20.7,-,N/A,,Partly Cloudy,250,2013-01-01 08:30:00
9:00 AM,35.6,33.8,93,29.71,6.2,West,19.6,-,N/A,,Partly Cloudy,260,2013-01-01 09:00:00
9:30 AM,35.6,33.8,93,29.71,6.2,WSW,19.6,-,N/A,,Partly Cloudy,250,2013-01-01 09:30:00
10:00 AM,35.6,33.8,93,29.74,6.2,WSW,20.7,-,N/A,,Scattered Clouds,250,2013-01-01 10:00:00
10:30 AM,37.4,33.8,87,29.74,6.2,WSW,19.6,-,N/A,,Scattered Clouds,250,2013-01-01 10:30:00
11:00 AM,37.4,33.8,87,29.77,6.2,WSW,20.7,-,N/A,,Mostly Cloudy,250,2013-01-01 11:00:00
11:30 AM,39.2,35.6,87,29.77,6.2,WSW,19.6,-,N/A,,Mostly Cloudy,250,2013-01-01 11:30:00
12:00 PM,41,35,72,29.81,22,WSW,20.1,,,,Scattered Clouds,250,2013-01-01 12:00:00
12:00 PM,41.0,35.6,81,29.77,6.2,WSW,20.7,-,N/A,,Mostly Cloudy,250,2013-01-01 12:00:00
12:30 PM,41.0,35.6,81,29.80,6.2,West,19.6,-,N/A,,Mostly Cloudy,260,2013-01-01 12:30:00
1:00 PM,41.0,35.6,81,29.80,6.2,West,19.6,-,N/A,,Scattered Clouds,260,2013-01-01 13:00:00
1:30 PM,42.8,35.6,76,29.80,6.2,WSW,19.6,-,N/A,,Scattered Clouds,250,2013-01-01 13:30:00
2:00 PM,42.8,37.4,81,29.83,6.2,WSW,16.1,-,N/A,,Scattered Clouds,250,2013-01-01 14:00:00
2:30 PM,42.8,37.4,81,29.83,6.2,WSW,12.7,-,N/A,,Scattered Clouds,250,2013-01-01 14:30:00
3:00 PM,42.8,37.4,81,29.83,6.2,West,11.5,-,N/A,,Mostly Cloudy,260,2013-01-01 15:00:00
3:30 PM,42.8,37.4,81,29.86,6.2,West,15.0,-,N/A,,Scattered Clouds,270,2013-01-01 15:30:00
4:00 PM,42.8,37.4,81,29.89,6.2,West,13.8,-,N/A,,Scattered Clouds,260,2013-01-01 16:00:00
4:30 PM,42.8,37.4,81,29.89,6.2,West,13.8,-,N/A,,Scattered Clouds,270,2013-01-01 16:30:00
5:00 PM,42.8,37.4,81,29.92,6.2,West,13.8,-,N/A,,Partly Cloudy,270,2013-01-01 17:00:00
5:30 PM,41.0,37.4,87,29.92,6.2,West,12.7,-,N/A,,Partly Cloudy,260,2013-01-01 17:30:00
6:00 PM,41,37,80,29.96,19,WSW,13.4,,,,Partly Cloudy,240,2013-01-01 18:00:00
6:00 PM,41.0,37.4,87,29.95,6.2,WSW,13.8,-,N/A,,Scattered Clouds,250,2013-01-01 18:00:00
6:30 PM,41.0,37.4,87,29.95,6.2,WSW,17.3,-,N/A,,Scattered Clouds,250,2013-01-01 18:30:00
7:00 PM,41.0,35.6,81,29.98,6.2,WSW,16.1,-,N/A,,Partly Cloudy,250,2013-01-01 19:00:00
7:30 PM,39.2,37.4,93,29.98,6.2,West,17.3,-,N/A,,Scattered Clouds,260,2013-01-01 19:30:00
8:00 PM,41.0,37.4,87,30.01,6.2,WSW,16.1,-,N/A,,Mostly Cloudy,250,2013-01-01 20:00:00
8:30 PM,41.0,37.4,87,30.01,6.2,West,15.0,-,N/A,,Mostly Cloudy,260,2013-01-01 20:30:00
9:00 PM,41.0,37.4,87,30.01,6.2,WSW,16.1,-,N/A,,Mostly Cloudy,250,2013-01-01 21:00:00
9:30 PM,41.0,37.4,87,30.04,6.2,WSW,15.0,-,N/A,,Mostly Cloudy,250,2013-01-01 21:30:00
10:00 PM,41.0,37.4,87,30.04,6.2,West,16.1,-,N/A,,Overcast,260,2013-01-01 22:00:00
10:30 PM,41.0,37.4,87,30.04,6.2,WSW,16.1,-,N/A,,Overcast,250,2013-01-01 22:30:00
11:00 PM,42.8,37.4,81,30.04,6.2,West,17.3,-,N/A,,Overcast,260,2013-01-01 23:00:00
11:30 PM,42.8,37.4,81,30.06,6.2,WSW,17.3,-,N/A,,Overcast,250,2013-01-01 23:30:00